Location: Siratepeler Tepesi
(39.1042°N, 32.0781°E)
Time: 23:55:17
(UTC+00:00)

Cosmos 2360 Rocket - Pass Details

Date: 11 April 2026
Orbit: 831 x 845 km, 71.0° (Epoch: 11 May)

Event Time Altitude Azimuth Distance (km) Brightness Sun altitude
Rises 16:51:38 0° 198° (SSW) 3,362 5.4 -5.8°
Reaches altitude 10° 16:54:03 10° 197° (SSW) 2,434 4.6 -6.3°
Maximum altitude 16:59:38 82° 112° (ESE) 848 2.2 -7.3°
Drops below altitude 10° 17:05:17 10° 25° (NNE) 2,459 4.6 -8.4°
Sets 17:07:44 0° 24° (NNE) 3,399 5.3 -8.8°
